FW5442 Weather Reports


time (UTC)temp
F
wind
direction
speed
knots
gust
knots
rain 1hr
in
rain 24hr
in
rain mn
in
humidity
%
barometer
mb
20260506171055 55 345 8.7 12.2 0.00 0.02 0.02 62 1013.7
20260506170555 55 34 6.1 13.0 0.00 0.02 0.02 61 1013.9
20260506170055 55 342 9.6 13.0 0.00 0.02 0.02 63 1013.8
20260506165554 55 333 8.7 13.0 0.00 0.02 0.02 63 1013.8
20260506165055 55 345 8.7 12.2 0.00 0.02 0.02 65 1014.1
20260506164553 55 319 7.0 14.8 0.00 0.02 0.02 63 1014.1
20260506164054 55 340 7.8 14.8 0.00 0.02 0.02 65 1014.0
20260506163554 55 338 7.0 13.9 0.00 0.02 0.02 63 1013.9
20260506163056 55 336 7.8 13.9 0.00 0.02 0.02 65 1013.6
20260506162553 55 345 8.7 15.6 0.00 0.02 0.02 65 1013.4
20260506162053 55 340 9.6 15.6 0.00 0.02 0.02 64 1013.4
20260506161603 55 324 8.7 13.0 0.00 0.02 0.02 64 1013.4
20260506161055 55 25 7.8 13.0 0.00 0.02 0.02 62 1013.4
20260506160553 55 330 8.7 13.9 0.00 0.02 0.02 64 1013.4
20260506160054 55 11 7.8 14.8 0.00 0.02 0.02 63 1013.2
20260506155553 55 14 7.8 14.8 0.00 0.02 0.02 64 1013.2
20260506155054 55 20 7.0 14.8 0.00 0.02 0.02 64 1013.1
20260506154554 55 22 8.7 15.6 0.00 0.02 0.02 63 1013.1
20260506154054 55 1 7.8 15.6 0.00 0.02 0.02 62 1013.3
20260506153553 54 354 8.7 15.6 0.00 0.02 0.02 62 1013.2
20260506153057 54 345 7.8 14.8 0.00 0.02 0.02 60 1013.0
20260506152553 54 338 7.0 13.0 0.00 0.02 0.02 59 1013.0
20260506152056 54 356 9.6 13.0 0.00 0.02 0.02 60 1012.9
20260506151603 54 342 9.6 13.0 0.00 0.02 0.02 61 1012.9
20260506151053 54 341 7.0 13.0 0.00 0.02 0.02 59 1012.7
20260506150553 54 22 7.8 12.2 0.00 0.02 0.02 59 1012.8
20260506150106 54 341 7.8 12.2 0.00 0.02 0.02 60 1012.7
20260506145553 54 329 7.8 12.2 0.01 0.02 0.02 59 1012.5
20260506145056 54 330 6.1 11.3 0.01 0.02 0.02 60 1012.5
20260506144611 54 333 7.8 11.3 0.01 0.02 0.02 62 1012.9
20260506144054 54 346 7.0 14.8 0.01 0.02 0.02 62 1012.7
20260506143554 54 330 8.7 14.8 0.01 0.02 0.02 63 1012.8
20260506143057 54 334 10.4 13.9 0.01 0.02 0.02 63 1012.8
20260506142557 54 352 9.6 13.9 0.01 0.02 0.02 64 1012.7
20260506142053 55 7 7.8 15.6 0.01 0.02 0.02 63 1012.5
20260506141554 55 324 9.6 15.6 0.01 0.02 0.02 61 1012.4
20260506141056 55 7 9.6 14.8 0.01 0.02 0.02 59 1012.3
20260506140554 55 325 8.7 13.0 0.01 0.02 0.02 57 1012.3
20260506140106 55 350 7.8 12.2 0.01 0.02 0.02 57 1012.2
20260506135553 56 326 7.8 11.3 0.00 0.01 0.01 57 1012.2
20260506135052 56 2 6.1 9.6 0.00 0.01 0.01 58 1012.0
20260506134554 56 341 5.2 9.6 0.00 0.01 0.01 59 1011.7
20260506134054 56 34 5.2 9.6 0.00 0.01 0.01 60 1011.3
20260506133553 56 319 5.2 9.6 0.00 0.01 0.01 60 1011.5
20260506133133 56 13 5.2 8.7 0.00 0.01 0.01 59 1011.5
20260506132554 56 315 4.3 9.6 0.00 0.01 0.01 61 1011.5
20260506132055 56 12 4.3 10.4 0.00 0.01 0.01 62 1011.4
20260506131558 56 342 7.0 14.8 0.00 0.01 0.01 65 1011.5
20260506131058 56 20 6.1 14.8 0.00 0.01 0.01 66 1011.5
20260506130552 56 347 8.7 14.8 0.00 0.01 0.01 67 1011.6
20260506130138 56 336 7.8 12.2 0.00 0.01 0.01 67 1011.6
20260506125554 56 359 5.2 12.2 0.00 0.01 0.01 67 1011.3
20260506125054 56 353 7.8 12.2 0.00 0.01 0.01 67 1011.4
20260506124553 56 345 5.2 9.6 0.00 0.01 0.01 66 1011.2
20260506124054 56 15 4.3 8.7 0.00 0.01 0.01 66 1011.1
20260506123554 56 9 5.2 8.7 0.00 0.01 0.01 67 1011.0
20260506123101 56 5 5.2 8.7 0.00 0.01 0.01 67 1010.8
20260506122552 56 345 3.5 7.0 0.01 0.01 0.01 66 1010.7
20260506122050 56 349 3.5 8.7 0.01 0.01 0.01 66 1010.8
20260506121600 56 18 3.5 9.6 0.01 0.01 0.01 68 1010.6
20260506121055 56 41 4.3 10.4 0.01 0.01 0.01 67 1010.5
20260506120556 56 48 5.2 10.4 0.01 0.01 0.01 69 1010.4
20260506120104 56 323 5.2 11.3 0.01 0.01 0.01 67 1010.2
20260506115555 56 357 5.2 13.9 0.01 0.01 0.01 68 1010.1
20260506115055 56 8 7.0 13.9 0.01 0.01 0.01 70 1010.3
20260506114554 57 8 8.7 13.9 0.01 0.01 0.01 70 1010.2
20260506114051 57 340 7.0 11.3 0.01 0.01 0.01 68 1010.4
20260506113552 57 21 7.0 11.3 0.01 0.01 0.01 67 1010.3
20260506113054 58 16 6.1 11.3 0.01 0.01 0.01 65 1010.2
20260506112554 58 7 5.2 8.7 0.00 0.00 0.00 66 1010.2
20260506112054 58 329 0.9 10.4 0.00 0.00 0.00 67 1009.9
20260506111557 58 34 5.2 13.0 0.00 0.00 0.00 68 1009.8
20260506111054 58 19 7.8 13.0 0.00 0.00 0.00 69 1009.8
20260506110554 57 11 7.0 10.4 0.00 0.00 0.00 70 1009.7
20260506110053 57 18 5.2 10.4 0.00 0.00 0.00 71 1009.8
20260506105552 58 17 4.3 13.0 0.00 0.00 0.00 71 1009.7
20260506105054 58 355 5.2 15.6 0.00 0.00 0.00 73 1009.6
20260506104559 58 322 8.7 19.1 0.00 0.00 0.00 75 1009.6
20260506104051 58 359 9.6 19.1 0.00 0.00 0.00 77 1009.5
20260506103554 58 350 13.9 27.8 0.00 0.00 0.00 79 1009.7
20260506103055 59 329 13.9 43.4 0.00 0.00 0.00 81 1010.0
20260506102555 60 320 25.2 43.4 0.00 0.00 0.00 83 1010.1
20260506102056 62 323 24.3 43.4 0.00 0.00 0.00 82 1009.9
20260506101556 65 322 5.2 21.7 0.00 0.00 0.00 81 1008.4
20260506101053 71 311 13.0 21.7 0.00 0.00 0.00 72 1008.3
20260506100552 74 250 15.6 21.7 0.00 0.00 0.00 81 1008.1
20260506100106 74 237 14.8 23.5 0.00 0.00 0.00 81 1007.5
20260506095552 74 226 15.6 23.5 0.00 0.00 0.00 81 1007.4
20260506095052 74 219 13.0 21.7 0.00 0.00 0.00 80 1007.0
20260506094603 74 238 16.5 21.7 0.00 0.00 0.00 80 1007.0
20260506094052 74 229 14.8 21.7 0.00 0.00 0.00 81 1006.7
20260506093551 74 221 14.8 21.7 0.00 0.00 0.00 81 1006.8
20260506093054 74 210 15.6 20.9 0.00 0.00 0.00 81 1006.8
20260506092552 74 226 14.8 23.5 0.00 0.00 0.00 81 1007.0
20260506092057 74 228 15.6 25.2 0.00 0.00 0.00 81 1007.1
20260506091607 74 223 15.6 25.2 0.00 0.00 0.00 81 1007.0
20260506091056 74 229 14.8 23.5 0.00 0.00 0.00 81 1007.4
20260506090557 74 219 13.0 22.6 0.00 0.00 0.00 81 1007.2
20260506090057 74 226 11.3 16.5 0.00 0.00 0.00 81 1007.5
20260506085556 74 238 11.3 16.5 0.00 0.00 0.00 81 1007.7
20260506085058 74 229 12.2 18.2 0.00 0.00 0.00 81 1007.6
20260506084601 74 229 12.2 19.1 0.00 0.00 0.00 81 1007.6
20260506084056 74 231 14.8 22.6 0.00 0.00 0.00 81 1007.6
20260506083556 74 224 15.6 22.6 0.00 0.00 0.00 81 1007.5
20260506083058 74 244 14.8 20.0 0.00 0.00 0.00 81 1006.8
20260506082555 74 217 13.0 20.0 0.00 0.00 0.00 81 1006.8
20260506082056 74 237 13.9 20.0 0.00 0.00 0.00 81 1006.8
20260506081609 74 196 13.9 20.0 0.00 0.00 0.00 81 1006.7
20260506081056 74 227 13.0 18.2 0.00 0.00 0.00 81 1006.9
20260506080557 74 222 13.0 19.1 0.00 0.00 0.00 81 1006.8
20260506073057 74 226 14.8 24.3 0.00 0.00 0.00 81 1006.9
20260506072556 74 211 17.4 24.3 0.00 0.00 0.00 81 1006.8
20260506072056 74 200 17.4 24.3 0.00 0.00 0.00 81 1007.0
20260506071600 74 226 15.6 23.5 0.00 0.00 0.00 81 1007.0
20260506071059 74 206 14.8 22.6 0.00 0.00 0.00 81 1006.7
20260506070556 74 223 13.9 21.7 0.00 0.00 0.00 81 1007.0
20260506062057 74 195 11.3 20.9 0.00 0.00 0.00 82 1007.2
20260506061603 74 198 13.0 18.2 0.00 0.00 0.00 82 1007.2
20260506061056 74 198 13.0 18.2 0.00 0.00 0.00 82 1007.3
20260506060557 74 186 11.3 16.5 0.00 0.00 0.00 82 1007.2
20260506051056 74 224 9.6 19.1 0.00 0.00 0.00 81 1007.5
20260506050557 74 207 11.3 16.5 0.00 0.00 0.00 81 1007.6
20260506045057 74 189 8.7 14.8 0.00 0.00 0.00 81 1007.2
20260506044557 74 199 9.6 14.8 0.00 0.00 0.00 81 1007.2
20260506044056 74 183 7.8 14.8 0.00 0.00 0.00 81 1007.0
20260506043556 74 179 8.7 15.6 0.00 0.00 0.00 81 1007.4
20260506043100 74 181 9.6 17.4 0.00 0.00 0.00 81 1007.2
20260506042556 74 162 10.4 17.4 0.00 0.00 0.00 81 1007.3
20260506042056 74 152 10.4 17.4 0.00 0.00 0.00 81 1007.4
20260506041558 74 189 8.7 15.6 0.00 0.00 0.00 81 1007.6
20260506041055 74 177 9.6 16.5 0.00 0.00 0.00 80 1007.5
20260506040556 74 187 12.2 16.5 0.00 0.00 0.00 80 1007.6
20260506040100 74 179 9.6 15.6 0.00 0.00 0.00 80 1007.7
20260506035556 74 175 10.4 15.6 0.00 0.00 0.00 80 1007.8
20260506035056 74 180 8.7 16.5 0.00 0.00 0.00 80 1007.7
20260506034612 75 165 8.7 16.5 0.00 0.00 0.00 80 1007.8
20260506034056 75 196 11.3 16.5 0.00 0.00 0.00 80 1008.0
20260506033556 74 170 9.6 15.6 0.00 0.00 0.00 80 1007.7
20260506033059 74 212 7.8 15.6 0.00 0.00 0.00 80 1007.7
20260506032556 74 169 9.6 15.6 0.00 0.00 0.00 80 1007.6
20260506032056 74 174 10.4 15.6 0.00 0.00 0.00 80 1007.7
20260506031605 75 194 8.7 13.0 0.00 0.00 0.00 79 1007.6
20260506031058 75 184 3.5 11.3 0.00 0.00 0.00 79 1007.7
20260506030556 75 0 5.2 11.3 0.00 0.00 0.00 79 1007.6
20260506030054 75 187 7.0 13.9 0.00 0.00 0.00 79 1008.0
20260506025557 75 179 6.1 13.9 0.00 0.00 0.00 79 1007.9
20260506025056 75 183 9.6 15.6 0.00 0.00 0.00 79 1007.7
20260506024556 75 171 7.8 15.6 0.00 0.00 0.00 79 1007.6
20260506024056 75 169 7.8 12.2 0.00 0.00 0.00 79 1007.6
20260506023556 75 176 5.2 12.2 0.00 0.00 0.00 78 1007.3
20260506023105 75 226 6.1 13.0 0.00 0.00 0.00 78 1007.4
20260506022556 75 175 8.7 13.0 0.00 0.00 0.00 78 1007.4
20260506022056 75 196 6.1 15.6 0.00 0.00 0.00 78 1007.2
20260506021553 75 219 6.1 20.0 0.00 0.00 0.00 78 1007.2
20260506021100 75 193 7.8 20.0 0.00 0.00 0.00 78 1007.1
20260506020555 75 167 8.7 16.5 0.00 0.00 0.00 78 1007.1
20260506020057 75 168 9.6 16.5 0.00 0.00 0.00 78 1006.8
20260506015556 75 181 12.2 16.5 0.00 0.00 0.00 77 1006.9
20260506015059 75 165 8.7 16.5 0.00 0.00 0.00 77 1007.0
20260506014554 75 159 10.4 16.5 0.00 0.00 0.00 77 1007.1
20260506014056 75 195 9.6 16.5 0.00 0.00 0.00 77 1007.0
20260506013556 75 196 7.0 16.5 0.00 0.00 0.00 77 1006.8
20260506013109 75 166 11.3 16.5 0.00 0.00 0.00 77 1007.0
20260506012556 75 176 9.6 19.1 0.00 0.00 0.00 77 1006.8
20260506012059 75 188 13.0 19.1 0.00 0.00 0.00 77 1006.7
20260506011600 75 191 10.4 19.1 0.00 0.00 0.00 77 1006.5
20260506011056 75 169 10.4 22.6 0.00 0.00 0.00 77 1006.2
20260506010556 75 177 13.0 22.6 0.00 0.00 0.00 77 1006.1
20260506010117 75 198 14.8 21.7 0.00 0.00 0.00 77 1006.0
20260506005555 75 151 12.2 20.0 0.00 0.00 0.00 77 1006.0
20260506005057 75 184 9.6 16.5 0.00 0.00 0.00 77 1006.0
20260506004555 75 177 11.3 16.5 0.00 0.00 0.00 76 1006.1
20260506004055 75 191 10.4 16.5 0.00 0.00 0.00 76 1006.1
20260506003556 75 171 11.3 17.4 0.00 0.00 0.00 76 1006.2
20260506003114 75 167 10.4 17.4 0.00 0.00 0.00 76 1006.4
20260506002556 75 193 5.2 16.5 0.00 0.00 0.00 76 1006.4
20260506002056 75 162 8.7 16.5 0.00 0.00 0.00 76 1006.3
20260506001601 75 174 7.8 15.6 0.00 0.00 0.00 76 1006.1
20260506001056 75 204 9.6 16.5 0.00 0.00 0.00 77 1006.3
20260506000557 75 151 9.6 16.5 0.00 0.00 0.00 77 1006.2
20260506000056 75 171 11.3 16.5 0.00 0.00 0.00 77 1006.2
20260505235556 75 176 12.2 16.5 0.00 0.00 0.00 77 1006.1
20260505235057 75 159 9.6 15.6 0.00 0.00 0.00 77 1006.2
20260505234559 75 150 10.4 15.6 0.00 0.00 0.00 77 1006.1
20260505234100 75 156 10.4 15.6 0.00 0.00 0.00 76 1006.3
20260505233557 75 194 9.6 15.6 0.00 0.00 0.00 76 1006.4
20260505233106 75 166 9.6 17.4 0.00 0.00 0.00 76 1006.4
20260505232555 75 170 10.4 17.4 0.00 0.00 0.00 76 1006.5
20260505232055 75 176 9.6 17.4 0.00 0.00 0.00 76 1006.3
20260505231556 75 166 12.2 20.0 0.00 0.00 0.00 76 1006.2
20260505231055 75 148 12.2 20.0 0.00 0.00 0.00 76 1006.2
20260505230556 75 218 12.2 17.4 0.00 0.00 0.00 76 1006.6
20260505230057 74 165 12.2 16.5 0.00 0.00 0.00 76 1006.9
20260505225556 74 165 12.2 19.1 0.00 0.00 0.00 76 1006.9
20260505225056 74 176 10.4 19.1 0.00 0.00 0.00 77 1007.1
20260505224556 74 176 12.2 17.4 0.00 0.00 0.00 77 1007.0
20260505224056 74 182 11.3 17.4 0.00 0.00 0.00 77 1007.0
20260505223555 74 174 11.3 17.4 0.00 0.00 0.00 78 1007.1
20260505223058 74 175 10.4 16.5 0.00 0.00 0.00 79 1007.2
20260505222555 73 193 12.2 19.1 0.00 0.00 0.00 79 1007.2
20260505222055 73 191 11.3 19.1 0.00 0.00 0.00 79 1007.4
20260505221556 73 186 11.3 20.0 0.00 0.00 0.00 80 1007.2
20260505221055 73 176 13.0 20.0 0.00 0.00 0.00 80 1007.2
20260505220557 73 176 13.0 20.0 0.00 0.00 0.00 81 1007.3
20260505220058 73 170 11.3 19.1 0.00 0.00 0.00 81 1007.4
20260505215600 72 205 13.0 19.1 0.00 0.00 0.00 81 1007.2
20260505215055 72 149 13.0 23.5 0.00 0.00 0.00 81 1007.2
20260505214609 72 186 14.8 23.5 0.00 0.00 0.00 81 1007.4
20260505214053 72 203 16.5 23.5 0.00 0.00 0.00 81 1007.4
20260505213554 72 175 14.8 20.0 0.00 0.00 0.00 81 1007.3
20260505213052 72 167 13.0 21.7 0.00 0.00 0.00 82 1007.3
20260505212554 72 170 14.8 21.7 0.00 0.00 0.00 81 1007.3
20260505212053 72 175 13.9 21.7 0.00 0.00 0.00 81 1007.4
20260505211556 72 183 14.8 24.3 0.00 0.00 0.00 81 1007.4
20260505211053 72 196 18.2 24.3 0.00 0.00 0.00 81 1007.6
20260505210553 73 167 18.2 26.1 0.00 0.00 0.00 80 1007.5
20260505210055 73 172 17.4 26.1 0.00 0.00 0.00 80 1007.5
20260505205553 73 160 20.0 26.1 0.00 0.00 0.00 79 1007.6
20260505205054 73 190 18.2 27.8 0.00 0.00 0.00 78 1007.7
20260505204553 73 190 17.4 27.8 0.00 0.00 0.00 78 1007.6
20260505204053 74 176 15.6 20.0 0.00 0.00 0.00 77 1007.8
20260505203553 74 176 13.9 19.1 0.00 0.00 0.00 77 1007.8
20260505203056 74 170 13.0 17.4 0.00 0.00 0.00 77 1008.0
20260505202555 73 167 10.4 20.9 0.00 0.00 0.00 78 1008.0
20260505202055 73 192 13.9 23.5 0.00 0.00 0.00 78 1008.1
20260505201557 73 164 16.5 23.5 0.00 0.00 0.00 77 1008.1
20260505201056 74 186 16.5 23.5 0.00 0.00 0.00 76 1008.0
20260505200553 74 160 14.8 20.0 0.00 0.00 0.00 75 1008.1
20260505200056 74 177 13.9 22.6 0.00 0.00 0.00 75 1008.2
20260505195552 74 193 16.5 22.6 0.00 0.00 0.00 75 1008.2
20260505195052 74 200 17.4 25.2 0.00 0.00 0.00 75 1008.1
20260505194555 74 205 17.4 25.2 0.00 0.00 0.00 74 1008.2
20260505194053 74 196 14.8 22.6 0.00 0.00 0.00 74 1008.2
20260505193556 74 200 17.4 25.2 0.00 0.00 0.00 74 1008.0
20260505193053 74 204 17.4 25.2 0.00 0.00 0.00 74 1008.3
20260505192553 74 191 16.5 23.5 0.00 0.00 0.00 74 1008.3
20260505192053 74 180 16.5 22.6 0.00 0.00 0.00 74 1008.3
20260505191605 74 179 16.5 22.6 0.00 0.00 0.00 74 1008.4
20260505191058 74 167 13.9 22.6 0.00 0.00 0.00 74 1008.4
20260505190552 74 190 16.5 21.7 0.00 0.00 0.00 74 1008.3
20260505185556 74 196 12.2 26.1 0.00 0.00 0.00 74 1008.4
20260505185056 74 203 15.6 26.1 0.00 0.00 0.00 75 1008.3
20260505184558 74 189 19.1 26.1 0.00 0.00 0.00 75 1008.5
20260505184053 73 188 13.9 25.2 0.00 0.00 0.00 75 1008.5
20260505183553 73 193 15.6 25.2 0.00 0.00 0.00 75 1008.5
20260505183114 73 196 18.2 25.2 0.00 0.00 0.00 75 1008.4
20260505182553 73 188 17.4 23.5 0.00 0.00 0.00 75 1008.4
20260505182053 73 162 15.6 22.6 0.00 0.00 0.00 75 1008.3
20260505181557 72 162 13.0 22.6 0.00 0.00 0.00 77 1008.4
20260505181056 72 178 10.4 19.1 0.00 0.00 0.00 77 1008.4
20260505180554 72 169 13.9 20.0 0.00 0.00 0.00 76 1008.4
20260505180054 71 188 13.0 20.0 0.00 0.00 0.00 78 1008.6
20260505175553 71 208 13.0 20.0 0.00 0.00 0.00 78 1008.6
20260505175056 71 182 11.3 24.3 0.00 0.00 0.00 78 1008.8
20260505174554 71 160 13.0 24.3 0.00 0.00 0.00 79 1008.7
20260505174053 71 173 17.4 24.3 0.00 0.00 0.00 79 1008.7
20260505173555 70 170 16.5 22.6 0.00 0.00 0.00 79 1008.8
20260505173101 70 183 16.5 23.5 0.00 0.00 0.00 79 1008.8
20260505172557 70 192 17.4 24.3 0.00 0.00 0.00 79 1008.9
20260505172055 70 198 16.5 24.3 0.00 0.00 0.00 78 1009.0
20260505171601 71 183 18.2 24.3 0.00 0.00 0.00 77 1009.1